Time,TemperatureF,DewpointF,PressureIn,WindDirection,WindDirectionDegrees,WindSpeedMPH,WindSpeedGustMPH,Humidity,HourlyPrecipIn,Conditions,Clouds,dailyrainin,SoftwareType,DateUTC
2013-03-04 00:01:00,46.7,45.0,30.31,SSW,202,8.4,9.6,93,0.00,,,0.00,Rainwise IP-100,2013-03-04 08:01:00,
2013-03-04 00:06:00,46.6,45.0,30.31,SW,225,2.8,10.0,93,0.00,,,0.00,Rainwise IP-100,2013-03-04 08:06:00,
2013-03-04 00:11:00,46.6,45.0,30.31,SSW,202,3.5,11.2,93,0.00,,,0.00,Rainwise IP-100,2013-03-04 08:11:00,
2013-03-04 00:16:00,46.5,45.0,30.31,WSW,247,5.8,11.2,93,0.00,,,0.00,Rainwise IP-100,2013-03-04 08:16:00,
2013-03-04 00:21:00,46.4,44.0,30.31,WSW,247,5.8,11.0,93,0.00,,,0.00,Rainwise IP-100,2013-03-04 08:21:00,
2013-03-04 00:26:00,46.3,44.0,30.31,SSW,202,4.0,11.0,93,0.00,,,0.00,Rainwise IP-100,2013-03-04 08:26:00,
2013-03-04 00:31:00,46.2,44.0,30.31,SSW,202,5.4,10.3,93,0.00,,,0.00,Rainwise IP-100,2013-03-04 08:31:00,
2013-03-04 00:36:00,46.2,44.0,30.31,WSW,247,4.7,8.2,94,0.00,,,0.00,Rainwise IP-100,2013-03-04 08:36:00,
2013-03-04 00:41:00,46.2,44.0,30.31,WSW,247,2.1,8.6,94,0.00,,,0.00,Rainwise IP-100,2013-03-04 08:41:00,
2013-03-04 00:46:00,46.2,44.0,30.32,NW,315,2.8,11.0,94,0.00,,,0.00,Rainwise IP-100,2013-03-04 08:46:00,
2013-03-04 00:51:00,46.3,44.0,30.31,NW,315,3.3,7.2,94,0.00,,,0.00,Rainwise IP-100,2013-03-04 08:51:00,
2013-03-04 00:56:00,46.2,44.0,30.32,West,270,1.2,10.0,94,0.00,,,0.00,Rainwise IP-100,2013-03-04 08:56:00,
2013-03-04 01:01:00,46.2,44.0,30.31,South,180,4.0,8.9,94,0.00,,,0.00,Rainwise IP-100,2013-03-04 09:01:00,
2013-03-04 01:06:00,46.3,44.0,30.31,ESE,112,2.8,8.9,94,0.00,,,0.00,Rainwise IP-100,2013-03-04 09:06:00,
2013-03-04 01:11:00,46.3,44.0,30.31,SW,225,7.2,10.3,94,0.00,,,0.00,Rainwise IP-100,2013-03-04 09:11:00,
2013-03-04 01:16:00,46.3,44.0,30.32,SSE,157,2.8,9.3,94,0.00,,,0.00,Rainwise IP-100,2013-03-04 09:16:00,
2013-03-04 01:21:00,46.3,44.0,30.32,South,180,1.2,9.1,94,0.00,,,0.00,Rainwise IP-100,2013-03-04 09:21:00,
2013-03-04 01:26:00,46.3,44.0,30.32,SW,225,9.8,11.4,94,0.00,,,0.00,Rainwise IP-100,2013-03-04 09:26:00,
2013-03-04 01:31:00,46.3,44.0,30.32,WNW,292,1.2,10.0,94,0.00,,,0.00,Rainwise IP-100,2013-03-04 09:31:00,
2013-03-04 01:36:00,46.4,44.0,30.32,West,270,3.5,10.0,94,0.00,,,0.00,Rainwise IP-100,2013-03-04 09:36:00,
2013-03-04 01:41:00,46.4,44.0,30.32,WNW,292,2.8,9.8,94,0.00,,,0.00,Rainwise IP-100,2013-03-04 09:41:00,
2013-03-04 01:46:00,46.4,44.0,30.32,West,270,0.0,6.8,94,0.00,,,0.00,Rainwise IP-100,2013-03-04 09:46:00,
2013-03-04 01:51:00,46.4,44.0,30.32,WSW,247,4.7,7.7,94,0.00,,,0.00,Rainwise IP-100,2013-03-04 09:51:00,
2013-03-04 01:56:00,46.4,44.0,30.32,SSW,202,1.4,7.0,94,0.00,,,0.00,Rainwise IP-100,2013-03-04 09:56:00,
2013-03-04 02:01:00,46.5,45.0,30.32,NW,315,4.7,8.9,94,0.00,,,0.00,Rainwise IP-100,2013-03-04 10:01:00,
2013-03-04 02:06:00,46.5,45.0,30.32,WSW,247,0.0,6.1,94,0.00,,,0.00,Rainwise IP-100,2013-03-04 10:06:00,
2013-03-04 02:11:00,46.5,45.0,30.32,West,270,3.7,6.3,94,0.00,,,0.00,Rainwise IP-100,2013-03-04 10:11:00,
2013-03-04 02:13:00,46.5,45.0,30.32,SW,225,2.6,6.3,94,0.00,,,0.00,Rainwise IP-100,2013-03-04 10:13:00,
2013-03-04 02:18:00,46.5,45.0,30.32,WNW,292,2.6,6.5,94,0.00,,,0.00,Rainwise IP-100,2013-03-04 10:18:00,
2013-03-04 02:23:00,46.4,44.0,30.32,SW,225,2.3,6.5,94,0.00,,,0.00,Rainwise IP-100,2013-03-04 10:23:00,
2013-03-04 02:28:00,46.5,45.0,30.32,WNW,292,3.7,4.4,94,0.00,,,0.00,Rainwise IP-100,2013-03-04 10:28:00,
2013-03-04 02:33:00,46.6,45.0,30.32,WSW,247,0.0,4.9,94,0.00,,,0.00,Rainwise IP-100,2013-03-04 10:33:00,
2013-03-04 02:38:00,46.7,45.0,30.32,WSW,247,0.0,4.7,94,0.00,,,0.00,Rainwise IP-100,2013-03-04 10:38:00,
2013-03-04 02:43:00,46.7,45.0,30.32,SW,225,4.2,4.4,94,0.00,,,0.00,Rainwise IP-100,2013-03-04 10:43:00,
2013-03-04 02:48:00,46.7,45.0,30.32,SSW,202,1.9,7.7,93,0.00,,,0.00,Rainwise IP-100,2013-03-04 10:48:00,
2013-03-04 02:53:00,46.6,45.0,30.33,SSE,157,2.3,7.0,93,0.00,,,0.00,Rainwise IP-100,2013-03-04 10:53:00,
2013-03-04 02:58:00,46.6,45.0,30.33,West,270,2.6,5.6,93,0.00,,,0.00,Rainwise IP-100,2013-03-04 10:58:00,
2013-03-04 03:03:00,46.6,45.0,30.33,SW,225,1.4,12.4,93,0.00,,,0.00,Rainwise IP-100,2013-03-04 11:03:00,
2013-03-04 03:08:00,46.5,45.0,30.33,SW,225,3.0,7.9,93,0.00,,,0.00,Rainwise IP-100,2013-03-04 11:08:00,
2013-03-04 03:13:00,46.3,44.0,30.33,West,270,1.4,9.6,93,0.00,,,0.00,Rainwise IP-100,2013-03-04 11:13:00,
2013-03-04 03:18:00,46.2,44.0,30.32,SW,225,2.8,9.1,93,0.00,,,0.00,Rainwise IP-100,2013-03-04 11:18:00,
2013-03-04 03:23:00,46.2,44.0,30.33,SSW,202,7.0,9.8,94,0.00,,,0.00,Rainwise IP-100,2013-03-04 11:23:00,
2013-03-04 03:28:00,46.1,44.0,30.32,WNW,292,5.6,11.9,94,0.00,,,0.00,Rainwise IP-100,2013-03-04 11:28:00,
2013-03-04 03:33:00,46.1,44.0,30.32,SSW,202,1.2,7.2,94,0.00,,,0.00,Rainwise IP-100,2013-03-04 11:33:00,
2013-03-04 03:35:00,46.1,44.0,30.32,WSW,247,2.8,7.0,95,0.00,,,0.00,Rainwise IP-100,2013-03-04 11:35:00,
2013-03-04 03:40:00,46.1,44.0,30.32,SSW,202,4.0,7.9,95,0.00,,,0.00,Rainwise IP-100,2013-03-04 11:40:00,
2013-03-04 03:45:00,46.1,44.0,30.32,SW,225,10.3,13.3,95,0.00,,,0.00,Rainwise IP-100,2013-03-04 11:45:00,
2013-03-04 03:50:00,46.1,44.0,30.32,WSW,247,4.9,10.3,95,0.00,,,0.00,Rainwise IP-100,2013-03-04 11:50:00,
2013-03-04 03:55:00,46.0,44.0,30.33,West,270,2.6,10.5,95,0.00,,,0.00,Rainwise IP-100,2013-03-04 11:55:00,
2013-03-04 04:00:00,46.0,44.0,30.33,SW,225,3.7,9.1,95,0.00,,,0.00,Rainwise IP-100,2013-03-04 12:00:00,
2013-03-04 04:05:00,45.9,45.0,30.32,SW,225,4.2,10.0,96,0.00,,,0.00,Rainwise IP-100,2013-03-04 12:05:00,
2013-03-04 04:10:00,45.9,45.0,30.32,South,180,5.1,8.4,96,0.00,,,0.00,Rainwise IP-100,2013-03-04 12:10:00,
2013-03-04 04:15:00,46.0,45.0,30.32,SSW,202,2.3,8.9,96,0.00,,,0.00,Rainwise IP-100,2013-03-04 12:15:00,
2013-03-04 04:20:00,45.9,45.0,30.32,WNW,292,3.5,8.6,96,0.00,,,0.00,Rainwise IP-100,2013-03-04 12:20:00,
2013-03-04 04:25:00,45.9,45.0,30.32,SW,225,3.5,10.0,96,0.00,,,0.00,Rainwise IP-100,2013-03-04 12:25:00,
2013-03-04 04:30:00,45.9,45.0,30.32,East,90,0.0,8.9,96,0.00,,,0.00,Rainwise IP-100,2013-03-04 12:30:00,
2013-03-04 04:35:00,46.0,45.0,30.32,WSW,247,4.0,6.1,96,0.00,,,0.00,Rainwise IP-100,2013-03-04 12:35:00,
2013-03-04 04:40:00,46.0,45.0,30.33,SW,225,2.3,9.1,96,0.00,,,0.00,Rainwise IP-100,2013-03-04 12:40:00,
2013-03-04 04:45:00,45.9,45.0,30.33,WSW,247,0.0,9.8,96,0.00,,,0.00,Rainwise IP-100,2013-03-04 12:45:00,
2013-03-04 04:50:00,45.7,45.0,30.33,SW,225,4.4,7.7,96,0.00,,,0.00,Rainwise IP-100,2013-03-04 12:50:00,
2013-03-04 04:55:00,45.6,44.0,30.33,WSW,247,2.8,6.8,95,0.00,,,0.00,Rainwise IP-100,2013-03-04 12:55:00,
2013-03-04 05:00:00,45.6,44.0,30.32,WSW,247,0.0,6.8,95,0.00,,,0.00,Rainwise IP-100,2013-03-04 13:00:00,
2013-03-04 05:05:00,45.7,45.0,30.32,WNW,292,0.0,9.1,96,0.00,,,0.00,Rainwise IP-100,2013-03-04 13:05:00,
2013-03-04 05:10:00,45.7,45.0,30.33,NNW,337,2.6,7.7,96,0.00,,,0.00,Rainwise IP-100,2013-03-04 13:10:00,
2013-03-04 05:15:00,45.6,45.0,30.33,SW,225,3.0,6.1,96,0.00,,,0.00,Rainwise IP-100,2013-03-04 13:15:00,
2013-03-04 05:20:00,45.6,45.0,30.33,WSW,247,6.5,6.5,96,0.00,,,0.00,Rainwise IP-100,2013-03-04 13:20:00,
2013-03-04 05:25:00,45.5,45.0,30.33,SW,225,8.4,10.7,96,0.00,,,0.00,Rainwise IP-100,2013-03-04 13:25:00,
2013-03-04 05:30:00,45.5,45.0,30.33,WSW,247,4.9,10.5,96,0.00,,,0.00,Rainwise IP-100,2013-03-04 13:30:00,
2013-03-04 05:35:00,45.5,45.0,30.33,SW,225,4.7,9.6,96,0.00,,,0.00,Rainwise IP-100,2013-03-04 13:35:00,
2013-03-04 05:40:00,45.6,45.0,30.33,SW,225,8.4,8.4,96,0.00,,,0.00,Rainwise IP-100,2013-03-04 13:40:00,
2013-03-04 05:45:00,45.6,45.0,30.33,WSW,247,2.6,8.6,96,0.00,,,0.00,Rainwise IP-100,2013-03-04 13:45:00,
2013-03-04 05:50:00,45.5,45.0,30.33,WNW,292,2.8,8.2,96,0.00,,,0.00,Rainwise IP-100,2013-03-04 13:50:00,
2013-03-04 05:55:00,45.5,45.0,30.34,WNW,292,5.8,7.2,96,0.00,,,0.00,Rainwise IP-100,2013-03-04 13:55:00,
2013-03-04 06:00:00,45.5,45.0,30.33,WNW,292,8.2,9.1,96,0.00,,,0.00,Rainwise IP-100,2013-03-04 14:00:00,
2013-03-04 06:05:00,45.4,44.0,30.33,SW,225,3.3,10.5,95,0.00,,,0.00,Rainwise IP-100,2013-03-04 14:05:00,
2013-03-04 06:10:00,45.4,44.0,30.33,South,180,5.6,6.8,95,0.00,,,0.00,Rainwise IP-100,2013-03-04 14:10:00,
2013-03-04 06:15:00,45.4,44.0,30.34,SSE,157,3.3,11.2,95,0.00,,,0.00,Rainwise IP-100,2013-03-04 14:15:00,
2013-03-04 06:20:00,45.4,44.0,30.34,WSW,247,1.9,4.9,95,0.00,,,0.00,Rainwise IP-100,2013-03-04 14:20:00,
2013-03-04 06:25:00,45.5,45.0,30.34,WSW,247,2.8,6.5,96,0.00,,,0.00,Rainwise IP-100,2013-03-04 14:25:00,
2013-03-04 06:30:00,45.5,44.0,30.34,WSW,247,0.0,5.1,95,0.00,,,0.00,Rainwise IP-100,2013-03-04 14:30:00,
2013-03-04 06:35:00,45.5,44.0,30.34,WNW,292,0.0,4.7,95,0.00,,,0.00,Rainwise IP-100,2013-03-04 14:35:00,
2013-03-04 06:40:00,45.5,45.0,30.33,WNW,292,2.6,5.4,96,0.00,,,0.00,Rainwise IP-100,2013-03-04 14:40:00,
2013-03-04 06:45:00,45.5,45.0,30.34,WNW,292,1.9,6.8,96,0.00,,,0.00,Rainwise IP-100,2013-03-04 14:45:00,
2013-03-04 06:50:00,45.5,45.0,30.34,SSW,202,0.0,5.6,96,0.00,,,0.00,Rainwise IP-100,2013-03-04 14:50:00,
2013-03-04 06:55:00,45.5,44.0,30.34,NW,315,0.0,7.2,95,0.00,,,0.00,Rainwise IP-100,2013-03-04 14:55:00,
2013-03-04 07:00:00,45.5,44.0,30.34,WNW,292,3.0,4.9,95,0.00,,,0.00,Rainwise IP-100,2013-03-04 15:00:00,
2013-03-04 07:05:00,45.5,44.0,30.34,SW,225,5.4,5.4,95,0.00,,,0.00,Rainwise IP-100,2013-03-04 15:05:00,
2013-03-04 07:10:00,45.5,44.0,30.34,SSW,202,1.4,8.4,95,0.00,,,0.00,Rainwise IP-100,2013-03-04 15:10:00,
2013-03-04 07:15:00,45.6,44.0,30.35,West,270,5.4,5.8,95,0.00,,,0.00,Rainwise IP-100,2013-03-04 15:15:00,
2013-03-04 07:20:00,45.6,44.0,30.34,WNW,292,7.2,8.4,95,0.00,,,0.00,Rainwise IP-100,2013-03-04 15:20:00,
2013-03-04 07:25:00,45.5,44.0,30.35,WNW,292,4.7,9.6,95,0.00,,,0.00,Rainwise IP-100,2013-03-04 15:25:00,
2013-03-04 07:30:00,45.4,44.0,30.35,WNW,292,1.4,9.3,95,0.00,,,0.00,Rainwise IP-100,2013-03-04 15:30:00,
2013-03-04 07:35:00,45.4,44.0,30.35,WNW,292,0.0,6.1,95,0.00,,,0.00,Rainwise IP-100,2013-03-04 15:35:00,
2013-03-04 07:40:00,45.5,44.0,30.35,South,180,5.6,8.9,95,0.00,,,0.00,Rainwise IP-100,2013-03-04 15:40:00,
2013-03-04 07:45:00,45.6,44.0,30.35,SW,225,6.5,11.9,95,0.00,,,0.00,Rainwise IP-100,2013-03-04 15:45:00,
2013-03-04 07:50:00,45.6,44.0,30.35,WNW,292,1.2,10.5,95,0.00,,,0.00,Rainwise IP-100,2013-03-04 15:50:00,
2013-03-04 07:55:00,45.6,44.0,30.36,WSW,247,4.9,10.5,95,0.00,,,0.00,Rainwise IP-100,2013-03-04 15:55:00,
2013-03-04 08:00:00,45.6,44.0,30.36,SSW,202,1.9,12.1,95,0.00,,,0.00,Rainwise IP-100,2013-03-04 16:00:00,
2013-03-04 08:05:00,45.7,44.0,30.36,SE,135,2.3,8.4,94,0.00,,,0.00,Rainwise IP-100,2013-03-04 16:05:00,
2013-03-04 08:10:00,45.7,44.0,30.36,WSW,247,3.0,10.0,94,0.00,,,0.00,Rainwise IP-100,2013-03-04 16:10:00,
2013-03-04 08:15:00,45.8,44.0,30.36,WNW,292,0.0,4.9,94,0.00,,,0.00,Rainwise IP-100,2013-03-04 16:15:00,
2013-03-04 08:20:00,45.9,44.0,30.36,West,270,2.6,8.4,94,0.00,,,0.00,Rainwise IP-100,2013-03-04 16:20:00,
2013-03-04 08:25:00,46.0,44.0,30.36,West,270,1.9,7.0,93,0.00,,,0.00,Rainwise IP-100,2013-03-04 16:25:00,
2013-03-04 08:30:00,46.0,44.0,30.37,WNW,292,3.7,11.2,93,0.00,,,0.00,Rainwise IP-100,2013-03-04 16:30:00,
2013-03-04 08:35:00,46.1,44.0,30.36,SSW,202,2.8,6.8,93,0.00,,,0.00,Rainwise IP-100,2013-03-04 16:35:00,
2013-03-04 08:40:00,46.2,44.0,30.37,West,270,7.5,7.5,93,0.00,,,0.00,Rainwise IP-100,2013-03-04 16:40:00,
2013-03-04 08:45:00,46.3,44.0,30.37,WSW,247,1.6,8.2,92,0.00,,,0.00,Rainwise IP-100,2013-03-04 16:45:00,
2013-03-04 08:50:00,46.4,44.0,30.36,SW,225,1.9,9.8,92,0.00,,,0.00,Rainwise IP-100,2013-03-04 16:50:00,
2013-03-04 08:55:00,46.4,44.0,30.37,SW,225,5.4,7.2,92,0.00,,,0.00,Rainwise IP-100,2013-03-04 16:55:00,
2013-03-04 09:00:00,46.4,44.0,30.37,WNW,292,0.0,6.1,92,0.00,,,0.00,Rainwise IP-100,2013-03-04 17:00:00,
2013-03-04 09:05:00,46.7,44.0,30.37,WNW,292,5.4,5.4,92,0.00,,,0.00,Rainwise IP-100,2013-03-04 17:05:00,
2013-03-04 09:10:00,47.0,44.0,30.37,WNW,292,2.6,7.7,92,0.00,,,0.00,Rainwise IP-100,2013-03-04 17:10:00,
2013-03-04 09:15:00,47.1,44.0,30.37,WNW,292,4.9,4.9,91,0.00,,,0.00,Rainwise IP-100,2013-03-04 17:15:00,
2013-03-04 09:20:00,47.1,44.0,30.38,WNW,292,1.6,6.3,90,0.00,,,0.00,Rainwise IP-100,2013-03-04 17:20:00,
2013-03-04 09:25:00,46.9,44.0,30.38,SE,135,2.6,8.4,90,0.00,,,0.00,Rainwise IP-100,2013-03-04 17:25:00,
2013-03-04 09:30:00,46.9,44.0,30.37,SSW,202,6.1,6.3,91,0.00,,,0.00,Rainwise IP-100,2013-03-04 17:30:00,
2013-03-04 09:35:00,46.8,44.0,30.37,WNW,292,7.0,8.6,91,0.00,,,0.00,Rainwise IP-100,2013-03-04 17:35:00,
2013-03-04 09:40:00,46.8,44.0,30.38,WSW,247,4.0,9.1,91,0.00,,,0.00,Rainwise IP-100,2013-03-04 17:40:00,
2013-03-04 09:45:00,46.8,44.0,30.38,SW,225,1.2,10.3,91,0.00,,,0.00,Rainwise IP-100,2013-03-04 17:45:00,
2013-03-04 09:50:00,46.8,44.0,30.37,NNW,337,2.1,7.0,91,0.00,,,0.00,Rainwise IP-100,2013-03-04 17:50:00,
2013-03-04 09:55:00,47.0,44.0,30.38,WNW,292,5.8,7.5,90,0.00,,,0.00,Rainwise IP-100,2013-03-04 17:55:00,
2013-03-04 10:00:00,47.2,44.0,30.37,WNW,292,3.5,8.2,90,0.00,,,0.00,Rainwise IP-100,2013-03-04 18:00:00,
2013-03-04 10:05:00,47.2,43.0,30.37,NNW,337,2.8,8.2,89,0.00,,,0.00,Rainwise IP-100,2013-03-04 18:05:00,
2013-03-04 10:10:00,47.2,43.0,30.37,WSW,247,4.4,7.7,89,0.00,,,0.00,Rainwise IP-100,2013-03-04 18:10:00,
2013-03-04 10:15:00,47.2,43.0,30.37,West,270,4.7,10.5,89,0.00,,,0.00,Rainwise IP-100,2013-03-04 18:15:00,
2013-03-04 10:20:00,47.2,43.0,30.37,SW,225,4.9,7.7,89,0.00,,,0.00,Rainwise IP-100,2013-03-04 18:20:00,
2013-03-04 10:25:00,47.4,44.0,30.37,ESE,112,0.0,8.4,89,0.00,,,0.00,Rainwise IP-100,2013-03-04 18:25:00,
2013-03-04 10:29:00,47.5,44.0,30.37,WNW,292,1.6,6.8,89,0.00,,,0.00,Rainwise IP-100,2013-03-04 18:29:00,
2013-03-04 10:31:00,47.5,44.0,30.37,WSW,247,0.0,6.8,89,0.00,,,0.00,Rainwise IP-100,2013-03-04 18:31:00,
2013-03-04 10:36:00,47.9,45.0,30.37,West,270,2.8,6.3,88,0.00,,,0.00,Rainwise IP-100,2013-03-04 18:36:00,
2013-03-04 10:41:00,48.2,45.0,30.37,SSW,202,3.7,10.5,87,0.00,,,0.00,Rainwise IP-100,2013-03-04 18:41:00,
2013-03-04 10:46:00,48.2,45.0,30.37,WSW,247,2.8,8.6,87,0.00,,,0.00,Rainwise IP-100,2013-03-04 18:46:00,
2013-03-04 10:51:00,48.1,44.0,30.38,SW,225,3.5,7.9,86,0.00,,,0.00,Rainwise IP-100,2013-03-04 18:51:00,
2013-03-04 10:56:00,47.9,44.0,30.37,WSW,247,5.6,8.2,86,0.00,,,0.00,Rainwise IP-100,2013-03-04 18:56:00,
2013-03-04 11:01:00,47.9,44.0,30.38,SW,225,5.1,8.9,85,0.00,,,0.00,Rainwise IP-100,2013-03-04 19:01:00,
2013-03-04 11:06:00,47.9,44.0,30.38,WNW,292,3.0,10.0,85,0.00,,,0.00,Rainwise IP-100,2013-03-04 19:06:00,
2013-03-04 11:11:00,48.3,44.0,30.38,WNW,292,1.4,6.1,85,0.00,,,0.00,Rainwise IP-100,2013-03-04 19:11:00,
2013-03-04 11:16:00,48.9,44.0,30.38,SW,225,6.3,8.2,84,0.00,,,0.00,Rainwise IP-100,2013-03-04 19:16:00,
2013-03-04 11:21:00,49.0,44.0,30.38,WNW,292,1.6,10.7,84,0.00,,,0.00,Rainwise IP-100,2013-03-04 19:21:00,
2013-03-04 11:26:00,48.8,44.0,30.38,SW,225,0.0,11.2,83,0.00,,,0.00,Rainwise IP-100,2013-03-04 19:26:00,
2013-03-04 11:31:00,49.0,44.0,30.38,SSW,202,4.4,6.5,83,0.00,,,0.00,Rainwise IP-100,2013-03-04 19:31:00,
2013-03-04 11:36:00,49.2,44.0,30.38,West,270,4.9,9.1,83,0.00,,,0.00,Rainwise IP-100,2013-03-04 19:36:00,
2013-03-04 11:41:00,49.4,44.0,30.38,WSW,247,2.3,8.9,82,0.00,,,0.00,Rainwise IP-100,2013-03-04 19:41:00,
2013-03-04 11:46:00,49.4,44.0,30.38,NNW,337,2.1,10.0,82,0.00,,,0.00,Rainwise IP-100,2013-03-04 19:46:00,
2013-03-04 11:51:00,49.5,44.0,30.38,East,90,4.7,8.9,81,0.00,,,0.00,Rainwise IP-100,2013-03-04 19:51:00,
2013-03-04 11:56:00,49.5,44.0,30.38,WNW,292,4.7,9.8,81,0.00,,,0.00,Rainwise IP-100,2013-03-04 19:56:00,
2013-03-04 12:01:00,49.6,44.0,30.38,East,90,0.0,9.8,81,0.00,,,0.00,Rainwise IP-100,2013-03-04 20:01:00,
2013-03-04 12:06:00,49.8,44.0,30.37,West,270,3.3,8.2,81,0.00,,,0.00,Rainwise IP-100,2013-03-04 20:06:00,
2013-03-04 12:11:00,49.7,44.0,30.37,SSW,202,3.7,8.2,81,0.00,,,0.00,Rainwise IP-100,2013-03-04 20:11:00,
2013-03-04 12:16:00,49.5,44.0,30.37,West,270,4.7,11.0,81,0.00,,,0.00,Rainwise IP-100,2013-03-04 20:16:00,
2013-03-04 12:21:00,49.4,43.0,30.37,SSW,202,3.5,10.5,81,0.00,,,0.00,Rainwise IP-100,2013-03-04 20:21:00,
2013-03-04 12:24:00,49.3,43.0,30.37,SSE,157,2.6,12.8,81,0.00,,,0.00,Rainwise IP-100,2013-03-04 20:24:00,
2013-03-04 12:29:00,49.3,43.0,30.37,West,270,2.8,8.2,81,0.00,,,0.00,Rainwise IP-100,2013-03-04 20:29:00,
2013-03-04 12:34:00,49.4,43.0,30.36,SW,225,3.3,9.6,80,0.00,,,0.00,Rainwise IP-100,2013-03-04 20:34:00,
2013-03-04 12:39:00,49.8,44.0,30.36,WSW,247,5.8,10.5,80,0.00,,,0.00,Rainwise IP-100,2013-03-04 20:39:00,
2013-03-04 12:44:00,50.1,43.0,30.35,WSW,247,6.1,10.5,79,0.00,,,0.00,Rainwise IP-100,2013-03-04 20:44:00,
2013-03-04 12:49:00,49.9,43.0,30.35,WSW,247,4.0,14.0,79,0.00,,,0.00,Rainwise IP-100,2013-03-04 20:49:00,
2013-03-04 12:54:00,50.1,43.0,30.36,SSW,202,5.1,9.8,79,0.00,,,0.00,Rainwise IP-100,2013-03-04 20:54:00,
2013-03-04 12:59:00,50.1,43.0,30.35,South,180,1.6,13.3,79,0.00,,,0.00,Rainwise IP-100,2013-03-04 20:59:00,
2013-03-04 13:04:00,50.2,43.0,30.35,SSE,157,2.3,10.5,79,0.00,,,0.00,Rainwise IP-100,2013-03-04 21:04:00,
2013-03-04 13:09:00,50.6,44.0,30.35,West,270,8.2,9.8,78,0.00,,,0.00,Rainwise IP-100,2013-03-04 21:09:00,
2013-03-04 13:14:00,50.5,44.0,30.34,SSW,202,7.9,10.7,78,0.00,,,0.00,Rainwise IP-100,2013-03-04 21:14:00,
2013-03-04 13:19:00,50.4,44.0,30.34,WSW,247,1.6,10.0,78,0.00,,,0.00,Rainwise IP-100,2013-03-04 21:19:00,
2013-03-04 13:24:00,51.0,44.0,30.33,NE,45,0.0,8.2,77,0.00,,,0.00,Rainwise IP-100,2013-03-04 21:24:00,
2013-03-04 13:29:00,51.8,44.0,30.33,WSW,247,5.1,7.9,75,0.00,,,0.00,Rainwise IP-100,2013-03-04 21:29:00,
2013-03-04 13:34:00,51.8,44.0,30.33,SSW,202,3.0,11.0,74,0.00,,,0.00,Rainwise IP-100,2013-03-04 21:34:00,
2013-03-04 13:39:00,51.6,44.0,30.33,SW,225,1.9,10.5,74,0.00,,,0.00,Rainwise IP-100,2013-03-04 21:39:00,
2013-03-04 13:44:00,51.0,44.0,30.32,SW,225,4.2,11.0,75,0.00,,,0.00,Rainwise IP-100,2013-03-04 21:44:00,
2013-03-04 13:49:00,51.1,44.0,30.32,SW,225,4.4,9.8,75,0.00,,,0.00,Rainwise IP-100,2013-03-04 21:49:00,
2013-03-04 13:54:00,51.7,44.0,30.32,SW,225,4.7,9.3,74,0.00,,,0.00,Rainwise IP-100,2013-03-04 21:54:00,
2013-03-04 13:59:00,52.0,44.0,30.32,NW,315,2.1,8.9,74,0.00,,,0.00,Rainwise IP-100,2013-03-04 21:59:00,
2013-03-04 14:04:00,51.9,43.0,30.32,SSE,157,6.1,11.9,73,0.00,,,0.00,Rainwise IP-100,2013-03-04 22:04:00,
2013-03-04 14:09:00,51.8,43.0,30.32,NNW,337,0.0,8.4,73,0.00,,,0.00,Rainwise IP-100,2013-03-04 22:09:00,
2013-03-04 14:14:00,52.3,43.0,30.31,WNW,292,6.5,8.6,72,0.00,,,0.00,Rainwise IP-100,2013-03-04 22:14:00,
2013-03-04 14:19:00,52.0,43.0,30.31,ESE,112,0.0,10.7,72,0.00,,,0.00,Rainwise IP-100,2013-03-04 22:19:00,
2013-03-04 14:24:00,51.5,43.0,30.32,WSW,247,3.3,11.2,73,0.00,,,0.00,Rainwise IP-100,2013-03-04 22:24:00,
2013-03-04 14:29:00,51.1,43.0,30.32,WSW,247,6.3,14.2,74,0.00,,,0.00,Rainwise IP-100,2013-03-04 22:29:00,
2013-03-04 14:34:00,51.1,43.0,30.32,NW,315,3.5,15.4,73,0.00,,,0.00,Rainwise IP-100,2013-03-04 22:34:00,
2013-03-04 14:39:00,51.2,43.0,30.33,West,270,6.1,15.6,73,0.00,,,0.00,Rainwise IP-100,2013-03-04 22:39:00,
2013-03-04 14:44:00,51.0,43.0,30.33,SW,225,14.5,14.7,73,0.00,,,0.00,Rainwise IP-100,2013-03-04 22:44:00,
2013-03-04 14:49:00,50.6,42.0,30.33,WNW,292,6.8,18.4,74,0.00,,,0.00,Rainwise IP-100,2013-03-04 22:49:00,
2013-03-04 14:54:00,50.6,43.0,30.33,West,270,9.1,10.3,75,0.00,,,0.00,Rainwise IP-100,2013-03-04 22:54:00,
2013-03-04 14:59:00,50.6,43.0,30.32,WSW,247,5.8,13.1,75,0.00,,,0.00,Rainwise IP-100,2013-03-04 22:59:00,
2013-03-04 15:04:00,50.1,42.0,30.32,WSW,247,7.2,12.6,76,0.00,,,0.00,Rainwise IP-100,2013-03-04 23:04:00,
2013-03-04 15:09:00,49.9,42.0,30.32,ESE,112,3.5,15.9,76,0.00,,,0.00,Rainwise IP-100,2013-03-04 23:09:00,
2013-03-04 15:14:00,49.4,42.0,30.32,WNW,292,10.3,16.8,77,0.00,,,0.00,Rainwise IP-100,2013-03-04 23:14:00,
2013-03-04 15:19:00,49.0,42.0,30.32,WSW,247,7.9,15.2,78,0.00,,,0.00,Rainwise IP-100,2013-03-04 23:19:00,
2013-03-04 15:24:00,49.0,42.0,30.31,WSW,247,7.7,16.1,78,0.00,,,0.00,Rainwise IP-100,2013-03-04 23:24:00,
2013-03-04 15:29:00,48.9,43.0,30.31,SSE,157,3.0,20.8,79,0.00,,,0.00,Rainwise IP-100,2013-03-04 23:29:00,
2013-03-04 15:34:00,48.9,43.0,30.31,ESE,112,5.8,13.8,79,0.00,,,0.00,Rainwise IP-100,2013-03-04 23:34:00,
2013-03-04 15:39:00,49.0,43.0,30.31,WNW,292,5.1,14.7,79,0.00,,,0.00,Rainwise IP-100,2013-03-04 23:39:00,
2013-03-04 15:44:00,49.2,43.0,30.31,WNW,292,11.9,14.5,79,0.00,,,0.00,Rainwise IP-100,2013-03-04 23:44:00,
2013-03-04 15:49:00,49.1,43.0,30.31,ENE,67,5.6,18.2,79,0.00,,,0.00,Rainwise IP-100,2013-03-04 23:49:00,
2013-03-04 15:54:00,49.2,42.0,30.31,West,270,12.8,12.8,78,0.00,,,0.00,Rainwise IP-100,2013-03-04 23:54:00,
2013-03-04 15:59:00,49.5,43.0,30.31,WSW,247,3.5,12.8,78,0.00,,,0.00,Rainwise IP-100,2013-03-04 23:59:00,
2013-03-04 16:04:00,49.6,43.0,30.31,West,270,4.4,17.7,78,0.00,,,0.00,Rainwise IP-100,2013-03-05 00:04:00,
2013-03-04 16:09:00,49.6,43.0,30.31,South,180,2.6,16.8,77,0.00,,,0.00,Rainwise IP-100,2013-03-05 00:09:00,
2013-03-04 16:14:00,49.7,42.0,30.31,West,270,3.7,14.5,76,0.00,,,0.00,Rainwise IP-100,2013-03-05 00:14:00,
2013-03-04 16:19:00,49.9,42.0,30.31,SSE,157,2.3,11.2,76,0.00,,,0.00,Rainwise IP-100,2013-03-05 00:19:00,
2013-03-04 16:24:00,49.9,42.0,30.31,West,270,8.6,13.1,76,0.00,,,0.00,Rainwise IP-100,2013-03-05 00:24:00,
2013-03-04 16:29:00,49.7,42.0,30.31,West,270,3.5,10.7,76,0.00,,,0.00,Rainwise IP-100,2013-03-05 00:29:00,
2013-03-04 16:34:00,49.8,43.0,30.31,WNW,292,1.2,8.6,77,0.00,,,0.00,Rainwise IP-100,2013-03-05 00:34:00,
2013-03-04 16:39:00,50.0,43.0,30.31,WNW,292,7.0,11.7,77,0.00,,,0.00,Rainwise IP-100,2013-03-05 00:39:00,
2013-03-04 16:44:00,49.9,42.0,30.31,NNW,337,1.2,12.8,76,0.00,,,0.00,Rainwise IP-100,2013-03-05 00:44:00,
2013-03-04 16:49:00,49.5,42.0,30.31,West,270,6.5,13.3,76,0.00,,,0.00,Rainwise IP-100,2013-03-05 00:49:00,
2013-03-04 16:54:00,49.1,42.0,30.31,WSW,247,5.1,13.8,77,0.00,,,0.00,Rainwise IP-100,2013-03-05 00:54:00,
2013-03-04 16:59:00,48.8,42.0,30.31,WNW,292,2.8,10.0,77,0.00,,,0.00,Rainwise IP-100,2013-03-05 00:59:00,
2013-03-04 17:04:00,48.5,43.0,30.31,WNW,292,6.8,12.6,79,0.00,,,0.00,Rainwise IP-100,2013-03-05 01:04:00,
2013-03-04 17:09:00,48.3,42.0,30.31,West,270,0.0,14.9,79,0.00,,,0.00,Rainwise IP-100,2013-03-05 01:09:00,
2013-03-04 17:14:00,48.2,42.0,30.31,West,270,3.3,7.2,79,0.00,,,0.00,Rainwise IP-100,2013-03-05 01:14:00,
2013-03-04 17:19:00,48.1,42.0,30.31,WNW,292,1.4,12.4,80,0.00,,,0.00,Rainwise IP-100,2013-03-05 01:19:00,
2013-03-04 17:24:00,47.9,42.0,30.30,WNW,292,1.9,10.0,80,0.00,,,0.00,Rainwise IP-100,2013-03-05 01:24:00,
2013-03-04 17:29:00,47.8,43.0,30.30,SSE,157,1.2,8.9,81,0.00,,,0.00,Rainwise IP-100,2013-03-05 01:29:00,
2013-03-04 17:34:00,47.7,42.0,30.30,WSW,247,3.3,7.9,81,0.00,,,0.00,Rainwise IP-100,2013-03-05 01:34:00,
2013-03-04 17:39:00,47.5,42.0,30.30,WSW,247,1.6,7.9,81,0.00,,,0.00,Rainwise IP-100,2013-03-05 01:39:00,
2013-03-04 17:44:00,47.3,42.0,30.30,West,270,4.2,9.1,82,0.00,,,0.00,Rainwise IP-100,2013-03-05 01:44:00,
2013-03-04 17:49:00,47.1,41.0,30.29,WSW,247,4.4,7.5,82,0.00,,,0.00,Rainwise IP-100,2013-03-05 01:49:00,
2013-03-04 17:54:00,47.1,41.0,30.29,WSW,247,3.0,9.3,82,0.00,,,0.00,Rainwise IP-100,2013-03-05 01:54:00,
2013-03-04 17:59:00,47.1,41.0,30.30,NNW,337,5.8,9.6,82,0.00,,,0.00,Rainwise IP-100,2013-03-05 01:59:00,
2013-03-04 18:04:00,46.9,41.0,30.30,NNW,337,2.1,10.0,82,0.00,,,0.00,Rainwise IP-100,2013-03-05 02:04:00,
2013-03-04 18:09:00,46.7,42.0,30.29,East,90,1.4,8.9,83,0.00,,,0.00,Rainwise IP-100,2013-03-05 02:09:00,
2013-03-04 18:14:00,46.6,42.0,30.29,WSW,247,3.7,6.5,84,0.00,,,0.00,Rainwise IP-100,2013-03-05 02:14:00,
2013-03-04 18:19:00,46.5,42.0,30.29,SSW,202,7.9,9.8,84,0.00,,,0.00,Rainwise IP-100,2013-03-05 02:19:00,
2013-03-04 18:24:00,46.4,41.0,30.29,SW,225,4.2,7.9,84,0.00,,,0.00,Rainwise IP-100,2013-03-05 02:24:00,
2013-03-04 18:29:00,46.4,41.0,30.29,West,270,4.4,9.8,85,0.00,,,0.00,Rainwise IP-100,2013-03-05 02:29:00,
2013-03-04 18:34:00,46.3,41.0,30.29,West,270,2.1,7.5,85,0.00,,,0.00,Rainwise IP-100,2013-03-05 02:34:00,
2013-03-04 18:39:00,46.2,41.0,30.29,WNW,292,5.8,7.2,85,0.00,,,0.00,Rainwise IP-100,2013-03-05 02:39:00,
2013-03-04 18:44:00,46.2,41.0,30.29,WSW,247,5.1,8.2,85,0.00,,,0.00,Rainwise IP-100,2013-03-05 02:44:00,
2013-03-04 18:49:00,46.1,41.0,30.29,WNW,292,5.6,7.5,85,0.00,,,0.00,Rainwise IP-100,2013-03-05 02:49:00,
2013-03-04 18:54:00,46.0,41.0,30.29,SW,225,0.0,8.6,85,0.00,,,0.00,Rainwise IP-100,2013-03-05 02:54:00,
2013-03-04 18:59:00,45.9,42.0,30.29,WSW,247,1.9,9.6,86,0.00,,,0.00,Rainwise IP-100,2013-03-05 02:59:00,
2013-03-04 19:04:00,45.8,42.0,30.29,WSW,247,3.3,7.0,86,0.00,,,0.00,Rainwise IP-100,2013-03-05 03:04:00,
2013-03-04 19:09:00,45.7,42.0,30.29,West,270,3.7,6.3,86,0.00,,,0.00,Rainwise IP-100,2013-03-05 03:09:00,
2013-03-04 19:14:00,45.7,42.0,30.29,NW,315,0.0,6.3,86,0.00,,,0.00,Rainwise IP-100,2013-03-05 03:14:00,
2013-03-04 19:19:00,45.6,42.0,30.29,NW,315,3.0,5.6,86,0.00,,,0.00,Rainwise IP-100,2013-03-05 03:19:00,
2013-03-04 19:24:00,45.6,42.0,30.29,WSW,247,3.5,6.5,87,0.00,,,0.00,Rainwise IP-100,2013-03-05 03:24:00,
2013-03-04 19:29:00,45.5,42.0,30.28,WSW,247,3.5,6.3,87,0.00,,,0.00,Rainwise IP-100,2013-03-05 03:29:00,
2013-03-04 19:34:00,45.5,42.0,30.29,NW,315,3.0,5.4,87,0.00,,,0.00,Rainwise IP-100,2013-03-05 03:34:00,
2013-03-04 19:39:00,45.5,42.0,30.29,WSW,247,0.0,10.0,87,0.00,,,0.00,Rainwise IP-100,2013-03-05 03:39:00,
2013-03-04 19:44:00,45.5,42.0,30.29,WNW,292,0.0,5.4,87,0.00,,,0.00,Rainwise IP-100,2013-03-05 03:44:00,
2013-03-04 19:49:00,45.5,42.0,30.29,WNW,292,1.2,4.0,87,0.00,,,0.00,Rainwise IP-100,2013-03-05 03:49:00,
2013-03-04 19:54:00,45.5,42.0,30.28,WNW,292,2.8,6.1,87,0.00,,,0.00,Rainwise IP-100,2013-03-05 03:54:00,
2013-03-04 19:59:00,45.4,41.0,30.28,WNW,292,2.1,4.9,88,0.00,,,0.00,Rainwise IP-100,2013-03-05 03:59:00,
2013-03-04 20:04:00,45.4,41.0,30.29,West,270,2.6,5.4,88,0.00,,,0.00,Rainwise IP-100,2013-03-05 04:04:00,
2013-03-04 20:09:00,45.3,41.0,30.29,SW,225,3.3,5.8,88,0.00,,,0.00,Rainwise IP-100,2013-03-05 04:09:00,
2013-03-04 20:14:00,45.3,41.0,30.29,WSW,247,1.2,7.0,88,0.00,,,0.00,Rainwise IP-100,2013-03-05 04:14:00,
2013-03-04 20:19:00,45.3,41.0,30.29,SW,225,1.4,5.8,88,0.00,,,0.00,Rainwise IP-100,2013-03-05 04:19:00,
2013-03-04 20:24:00,45.3,41.0,30.29,WNW,292,0.0,5.4,88,0.00,,,0.00,Rainwise IP-100,2013-03-05 04:24:00,
2013-03-04 20:29:00,45.3,41.0,30.29,WNW,292,0.0,6.1,88,0.00,,,0.00,Rainwise IP-100,2013-03-05 04:29:00,
2013-03-04 20:34:00,45.1,41.0,30.29,West,270,2.1,6.1,88,0.00,,,0.00,Rainwise IP-100,2013-03-05 04:34:00,
2013-03-04 20:39:00,45.1,41.0,30.29,WSW,247,2.6,5.1,88,0.00,,,0.00,Rainwise IP-100,2013-03-05 04:39:00,
2013-03-04 20:44:00,45.0,41.0,30.29,SSW,202,1.2,6.1,88,0.00,,,0.00,Rainwise IP-100,2013-03-05 04:44:00,
2013-03-04 20:49:00,45.0,42.0,30.30,SSW,202,3.3,5.8,89,0.00,,,0.00,Rainwise IP-100,2013-03-05 04:49:00,
2013-03-04 20:54:00,45.1,42.0,30.30,NNE,22,1.2,7.2,89,0.00,,,0.00,Rainwise IP-100,2013-03-05 04:54:00,
2013-03-04 20:59:00,45.1,42.0,30.30,WNW,292,0.0,6.3,89,0.00,,,0.00,Rainwise IP-100,2013-03-05 04:59:00,
2013-03-04 21:00:00,45.1,42.0,30.30,WNW,292,0.0,6.3,89,0.00,,,0.00,Rainwise IP-100,2013-03-05 05:00:00,
2013-03-04 21:05:00,45.1,42.0,30.29,WSW,247,0.0,5.4,89,0.00,,,0.00,Rainwise IP-100,2013-03-05 05:05:00,
2013-03-04 21:10:00,45.1,42.0,30.29,WSW,247,2.1,5.8,89,0.00,,,0.00,Rainwise IP-100,2013-03-05 05:10:00,
2013-03-04 21:15:00,45.2,42.0,30.29,SW,225,1.4,6.1,89,0.00,,,0.00,Rainwise IP-100,2013-03-05 05:15:00,
2013-03-04 21:20:00,45.1,42.0,30.29,SW,225,3.5,4.9,89,0.00,,,0.00,Rainwise IP-100,2013-03-05 05:20:00,
2013-03-04 21:25:00,45.1,42.0,30.30,SW,225,2.3,5.6,89,0.00,,,0.00,Rainwise IP-100,2013-03-05 05:25:00,
2013-03-04 21:30:00,45.1,42.0,30.29,SW,225,4.2,5.1,89,0.00,,,0.00,Rainwise IP-100,2013-03-05 05:30:00,
2013-03-04 21:35:00,45.0,42.0,30.30,WSW,247,2.1,5.4,89,0.00,,,0.00,Rainwise IP-100,2013-03-05 05:35:00,
2013-03-04 21:40:00,45.0,42.0,30.29,SW,225,3.0,6.1,89,0.00,,,0.00,Rainwise IP-100,2013-03-05 05:40:00,
2013-03-04 21:45:00,44.9,42.0,30.29,NNW,337,1.2,5.1,89,0.00,,,0.00,Rainwise IP-100,2013-03-05 05:45:00,
2013-03-04 21:50:00,44.8,42.0,30.29,WNW,292,0.0,4.7,89,0.00,,,0.00,Rainwise IP-100,2013-03-05 05:50:00,
2013-03-04 21:55:00,44.7,42.0,30.29,West,270,0.0,7.7,89,0.00,,,0.00,Rainwise IP-100,2013-03-05 05:55:00,
2013-03-04 22:00:00,44.7,42.0,30.29,SE,135,1.9,7.2,89,0.00,,,0.00,Rainwise IP-100,2013-03-05 06:00:00,
2013-03-04 22:05:00,44.8,42.0,30.29,SW,225,0.0,5.1,89,0.00,,,0.00,Rainwise IP-100,2013-03-05 06:05:00,
2013-03-04 22:10:00,44.8,42.0,30.29,WSW,247,1.6,8.4,89,0.00,,,0.00,Rainwise IP-100,2013-03-05 06:10:00,
2013-03-04 22:15:00,44.9,42.0,30.29,WNW,292,0.0,6.8,89,0.00,,,0.00,Rainwise IP-100,2013-03-05 06:15:00,
2013-03-04 22:20:00,45.0,42.0,30.29,West,270,2.3,4.9,89,0.00,,,0.00,Rainwise IP-100,2013-03-05 06:20:00,
2013-03-04 22:25:00,45.0,42.0,30.29,West,270,3.5,5.1,89,0.00,,,0.00,Rainwise IP-100,2013-03-05 06:25:00,
2013-03-04 22:26:00,45.0,42.0,30.29,SSW,202,0.0,7.2,89,0.00,,,0.00,Rainwise IP-100,2013-03-05 06:26:00,
2013-03-04 22:31:00,45.1,42.0,30.29,SW,225,1.2,5.1,89,0.00,,,0.00,Rainwise IP-100,2013-03-05 06:31:00,
2013-03-04 22:36:00,45.1,41.0,30.29,NW,315,1.2,7.9,88,0.00,,,0.00,Rainwise IP-100,2013-03-05 06:36:00,
2013-03-04 22:41:00,45.1,41.0,30.29,WSW,247,5.1,6.1,88,0.00,,,0.00,Rainwise IP-100,2013-03-05 06:41:00,
2013-03-04 22:46:00,45.1,41.0,30.29,SW,225,1.4,10.0,88,0.00,,,0.00,Rainwise IP-100,2013-03-05 06:46:00,
2013-03-04 22:51:00,45.0,42.0,30.29,ESE,112,0.0,9.8,89,0.00,,,0.00,Rainwise IP-100,2013-03-05 06:51:00,
2013-03-04 22:56:00,44.9,42.0,30.29,WNW,292,0.0,4.9,89,0.00,,,0.00,Rainwise IP-100,2013-03-05 06:56:00,
2013-03-04 23:01:00,44.8,42.0,30.29,SW,225,3.3,3.3,89,0.00,,,0.00,Rainwise IP-100,2013-03-05 07:01:00,
2013-03-04 23:06:00,44.7,42.0,30.29,West,270,0.0,8.2,89,0.00,,,0.00,Rainwise IP-100,2013-03-05 07:06:00,
2013-03-04 23:11:00,44.6,42.0,30.29,WSW,247,2.3,7.0,89,0.00,,,0.00,Rainwise IP-100,2013-03-05 07:11:00,
2013-03-04 23:16:00,44.6,42.0,30.29,SE,135,0.0,5.4,89,0.00,,,0.00,Rainwise IP-100,2013-03-05 07:16:00,
2013-03-04 23:21:00,44.6,42.0,30.28,West,270,2.6,8.4,89,0.00,,,0.00,Rainwise IP-100,2013-03-05 07:21:00,
2013-03-04 23:26:00,44.6,42.0,30.29,SW,225,3.0,8.6,89,0.00,,,0.00,Rainwise IP-100,2013-03-05 07:26:00,
2013-03-04 23:27:00,44.6,42.0,30.29,SSW,202,5.4,8.6,89,0.00,,,0.00,Rainwise IP-100,2013-03-05 07:27:00,
2013-03-04 23:32:00,44.6,41.0,30.28,NNW,337,2.8,6.8,88,0.00,,,0.00,Rainwise IP-100,2013-03-05 07:32:00,
2013-03-04 23:37:00,44.7,41.0,30.28,WSW,247,1.9,6.1,88,0.00,,,0.00,Rainwise IP-100,2013-03-05 07:37:00,
2013-03-04 23:39:00,44.7,41.0,30.28,SW,225,2.8,6.8,88,0.00,,,0.00,Rainwise IP-100,2013-03-05 07:39:00,
2013-03-04 23:44:00,44.7,41.0,30.28,SSW,202,0.0,5.4,88,0.00,,,0.00,Rainwise IP-100,2013-03-05 07:44:00,
2013-03-04 23:49:00,44.7,41.0,30.28,West,270,3.5,9.8,88,0.00,,,0.00,Rainwise IP-100,2013-03-05 07:49:00,
2013-03-04 23:54:00,44.7,41.0,30.28,SSW,202,1.4,6.8,88,0.00,,,0.00,Rainwise IP-100,2013-03-05 07:54:00,
2013-03-04 23:59:00,44.7,41.0,30.28,WSW,247,4.4,7.9,88,0.00,,,0.00,Rainwise IP-100,2013-03-05 07:59:00,